Weather History for Arcata, CA

Change the Weather History Date:

Friday, January 24, 2014

  Actual Average Record
Temperature  
Mean Temperature 56 °F -  
Max Temperature 66 °F 54 °F 70 °F (2006)
Min Temperature 45 °F 39 °F 30 °F (1999)
Degree Days  
Heating Degree Days 9    
Growing Degree Days 6 (Base 50)    
Moisture  
Dew Point 41 °F    
Average Humidity 65    
Maximum Humidity 90    
Minimum Humidity 19    
Precipitation  
Precipitation 0.00 in - - ()
Sea Level Pressure  
Sea Level Pressure 30.14 in    
Wind  
Wind Speed 6 mph (NW)    
Max Wind Speed 16 mph    
Max Gust Speed 25 mph    
Visibility 7 miles    
Events      
Averages and records for this station are not official NWS values.
T = Trace of Precipitation, MM = Missing Value Source: NWS Daily Summary

Daily Weather History Graph

Daily Weather History Graph

Search for Another Location

Airport:

Trip Planner

Search our weather history database for the weather conditions in past years. The results will help you decide how hot, cold, wet, or windy it might be!

Date:

Astronomy

Jan. 24, 2014 Rise Set
Actual Time 7:33 AM PST 5:23 PM PST
Civil Twilight 7:04 AM PST 5:53 PM PST
Nautical Twilight 6:30 AM PST 6:26 PM PST
Astronomical Twilight 5:58 AM PST 6:59 PM PST
Moon 1:06 AM PST (1/24) 11:46 AM PST (1/24)
Length of Visible Light 10h 49m
Length of Day
9h 50m
Last Quarter, 43% of the Moon is Illuminated
Jan 24
Last Quarter
Jan 30
New
Feb 6
First Quarter
Feb 14
Full
Feb 22
Last Quarter

Hourly Weather History & Observations

Time (PST) Temp. Windchill Dew Point Humidity Pressure Visibility Wind Dir Wind Speed Gust Speed Precip Events Conditions
12:53 AM 53.1 °F - 28.9 °F 40% 30.05 in 10.0 mi East 5.8 mph - N/A   Clear
1:53 AM 59.0 °F - 25.0 °F 27% 30.05 in 10.0 mi Variable 5.8 mph - N/A   Clear
2:53 AM 54.0 °F - 27.0 °F 35% 30.06 in 10.0 mi Calm Calm - N/A   Clear
3:53 AM 61.0 °F - 25.0 °F 25% 30.06 in 10.0 mi SE 9.2 mph - N/A   Clear
4:53 AM 64.0 °F - 24.1 °F 22% 30.05 in 10.0 mi SE 9.2 mph - N/A   Clear
5:53 AM 64.9 °F - 21.9 °F 19% 30.05 in 10.0 mi ESE 13.8 mph 25.3 mph N/A   Clear
6:53 AM 66.0 °F - 21.9 °F 19% 30.06 in 10.0 mi SE 16.1 mph 24.2 mph N/A   Clear
7:53 AM 63.0 °F - 23.0 °F 22% 30.09 in 10.0 mi SE 8.1 mph - N/A   Clear
8:53 AM 54.0 °F - 45.0 °F 72% 30.12 in 5.0 mi WSW 4.6 mph - N/A   Haze
9:28 AM 55.0 °F - 46.9 °F 74% 30.11 in 2.5 mi NW 4.6 mph - N/A   Haze
9:38 AM 54.0 °F - 48.0 °F 80% 30.11 in 1.8 mi WNW 4.6 mph - N/A   Haze
9:48 AM 53.6 °F - 48.2 °F 82% 30.12 in 2.0 mi West 4.6 mph - N/A   Haze
9:53 AM 54.0 °F - 48.0 °F 80% 30.14 in 2.5 mi WNW 3.5 mph - N/A   Haze
10:12 AM 55.0 °F - 48.0 °F 77% 30.13 in 4.0 mi West 3.5 mph - N/A   Haze
10:26 AM 55.0 °F - 48.0 °F 77% 30.13 in 2.5 mi NW 3.5 mph - N/A   Haze
10:31 AM 55.0 °F - 48.0 °F 77% 30.13 in 3.0 mi WNW 5.8 mph - N/A   Haze
10:53 AM 55.0 °F - 48.0 °F 77% 30.16 in 5.0 mi WNW 4.6 mph - N/A   Haze
11:53 AM 55.0 °F - 48.9 °F 80% 30.16 in 7.0 mi SW 5.8 mph - N/A   Clear
12:53 PM 57.0 °F - 48.9 °F 74% 30.15 in 7.0 mi NW 3.5 mph - N/A   Clear
1:53 PM 57.0 °F - 48.9 °F 74% 30.14 in 9.0 mi Variable 3.5 mph - N/A   Clear
2:53 PM 57.0 °F - 48.0 °F 72% 30.15 in 9.0 mi West 4.6 mph - N/A   Clear
3:53 PM 57.9 °F - 48.0 °F 70% 30.16 in 9.0 mi Variable 3.5 mph - N/A   Clear
4:53 PM 55.0 °F - 46.9 °F 74% 30.17 in 7.0 mi North 8.1 mph - N/A   Clear
5:53 PM 53.1 °F - 46.9 °F 80% 30.20 in 9.0 mi North 6.9 mph - N/A   Clear
6:53 PM 53.1 °F - 46.9 °F 80% 30.22 in 10.0 mi NNE 4.6 mph - N/A   Clear
7:53 PM 50.0 °F - 46.0 °F 86% 30.23 in 9.0 mi Calm Calm - N/A   Clear
8:53 PM 48.9 °F - 45.0 °F 86% 30.25 in 10.0 mi East 3.5 mph - N/A   Clear
9:53 PM 48.0 °F - 45.0 °F 89% 30.25 in 9.0 mi Calm Calm - N/A   Clear
10:53 PM 46.0 °F 43.9 °F 43.0 °F 89% 30.27 in 7.0 mi ESE 4.6 mph - N/A   Clear
11:53 PM 45.0 °F 43.5 °F 42.1 °F 90% 30.28 in 9.0 mi East 3.5 mph - N/A   Clear